Voltar ao catálogo

STARLINK-34741

AtivoComunicaçõesVLEO
NORAD 65097·PAYLOAD·🇺🇸 United States

Lançado Aug 4, 2025 de Cape Canaveral Space Force Station

Loading…

Próximas Passagens (próximas 24 horas)

TLE

AtualizadoSource: CelesTrak SupGP

Época: Sep 15, 2026, 03:25 UTC

1 65097C 25167V   26258.14284722 -.00056926  00000+0 -16818-2 0  2584
2 65097  53.1578 219.0197 0001410  87.0161 270.4849 15.34420797    13

Acompanhe STARLINK-34741 em tempo real com AllMySat

Download on the App Store